Location: Miles
(41.4492°N, 81.6087°W)
Time: 23:14:39
(UTC+00:00)

Courier 1B Rocket - Pass Details

Date: 19 September 2024
Orbit: 920 x 1201 km, 28.2° (Epoch: 09 October)

Event Time Altitude Azimuth Distance (km) Brightness Sun altitude
Rises 19:12:25 0° 223° (SW) 3,556 8.8 42.3°
Reaches altitude 10° 19:15:48 10° 205° (SSW) 2,637 8.3 41.9°
Maximum altitude 19:19:59 18° 163° (SSE) 2,130 7.4 41.4°
Drops below altitude 10° 19:24:19 10° 122° (ESE) 2,738 7.4 40.8°
Sets 19:27:55 0° 105° (ESE) 3,742 7.8 40.4°
